Westhampton Beach, NY

2:25 PM EDT on August 21, 2017 (GMT -0400)
The Gabreski

Weather History for KFOK - July, 2013

Change the Weather History Date:

Sunday, July 14, 2013

  Actual Average Record
Temperature  
Mean Temperature 80 °F -  
Max Temperature 90 °F 78 °F 91 °F (1997)
Min Temperature 72 °F 60 °F 46 °F (1999)
Cooling Degree Days 15    
Growing Degree Days 30 (Base 50)    
Moisture  
Dew Point 72 °F    
Average Humidity 81    
Maximum Humidity 100    
Minimum Humidity 57    
Precipitation  
Precipitation 0.01 in - - ()
Sea Level Pressure  
Sea Level Pressure 30.31 in    
Wind  
Wind Speed 5 mph (WSW)    
Max Wind Speed 14 mph    
Max Gust Speed 18 mph    
Visibility 6 miles    
Events Rain    
Averages and records for this station are not official NWS values.
T = Trace of Precipitation, MM = Missing Value Source: NWS Daily Summary

Daily Weather History Graph

Daily Weather History Graph

Search for Another Location

Airport or City:

Trip Planner

Search our weather history database for the weather conditions in past years. The results will help you decide how hot, cold, wet, or windy it might be!

Date:

Astronomy

Jul. 14, 2013 Rise Set
Actual Time 5:31 AM EDT 8:21 PM EDT
Civil Twilight 4:58 AM EDT 8:53 PM EDT
Nautical Twilight 4:17 AM EDT 9:34 PM EDT
Astronomical Twilight 3:30 AM EDT 10:21 PM EDT
Moon 11:48 AM EDT (7/14) 11:28 PM EDT (7/14)
Length of Visible Light 15h 54m
Length of Day
14h 50m
Waxing Crescent, 35% of the Moon is Illuminated
Jul 14
Waxing Crescent
Jul 15
First Quarter
Jul 22
Full
Jul 29
Last Quarter
Aug 6
New

Hourly Weather History & Observations

Time (EDT) Temp. Heat Index Dew Point Humidity Pressure Visibility Wind Dir Wind Speed Gust Speed Precip Events Conditions
12:04 AM 75.2 °F - 73.4 °F 94% 30.31 in 0.5 mi Calm Calm - 0.00 in Rain Light Rain
12:34 AM 75.2 °F - 73.4 °F 94% 30.32 in 0.5 mi SSW 3.5 mph - 0.00 in Rain Light Rain
12:53 AM 75.0 °F - 73.0 °F 94% 30.32 in 0.5 mi Calm Calm - 0.00 in   Overcast
1:01 AM 75.2 °F - 73.4 °F 94% 30.31 in 0.5 mi SSW 3.5 mph - N/A   Overcast
1:29 AM 75.2 °F - 73.4 °F 94% 30.32 in 0.5 mi Calm Calm - N/A   Overcast
1:53 AM 73.9 °F - 73.0 °F 97% 30.32 in 0.5 mi SW 3.5 mph - N/A   Overcast
2:21 AM 73.4 °F - 73.4 °F 100% 30.32 in 0.5 mi SW 3.5 mph - N/A   Overcast
2:35 AM 73.4 °F - 73.4 °F 100% 30.32 in 0.5 mi Calm Calm - N/A   Overcast
2:53 AM 73.9 °F - 73.0 °F 97% 30.32 in 0.5 mi Calm Calm - N/A   Overcast
3:06 AM 73.4 °F - 73.4 °F 100% 30.32 in 0.5 mi Calm Calm - N/A   Overcast
3:31 AM 73.4 °F - 73.4 °F 100% 30.32 in 0.5 mi SSW 3.5 mph - N/A   Overcast
3:53 AM 73.9 °F - 73.0 °F 97% 30.32 in 0.5 mi Calm Calm - N/A   Overcast
4:53 AM 73.0 °F - 71.1 °F 93% 30.32 in 0.5 mi SSW 3.5 mph - N/A   Overcast
5:53 AM 72.0 °F - 71.1 °F 97% 30.32 in 0.5 mi SW 3.5 mph - 0.01 in   Overcast
6:53 AM 73.0 °F - 72.0 °F 96% 30.32 in 0.5 mi WSW 9.2 mph - N/A   Overcast
7:53 AM 73.9 °F - 73.0 °F 97% 30.33 in 0.5 mi WSW 8.1 mph - N/A   Overcast
8:24 AM 78.8 °F - 73.4 °F 83% 30.33 in 0.5 mi WSW 10.4 mph - N/A   Mostly Cloudy
8:53 AM 78.1 °F - 73.9 °F 87% 30.33 in 0.5 mi WSW 6.9 mph - N/A   Mostly Cloudy
9:24 AM 80.6 °F 85.4 °F 73.4 °F 79% 30.33 in 0.5 mi Variable 4.6 mph - N/A   Mostly Cloudy
9:37 AM 82.4 °F 88.2 °F 73.4 °F 74% 30.33 in 10.0 mi West 9.2 mph - N/A   Scattered Clouds
9:53 AM 84.0 °F 90.2 °F 73.0 °F 69% 30.33 in 10.0 mi West 9.2 mph - N/A   Mostly Cloudy
10:53 AM 86.0 °F 92.2 °F 72.0 °F 63% 30.33 in 10.0 mi NW 10.4 mph 17.3 mph N/A   Mostly Cloudy
11:09 AM 86.0 °F 91.8 °F 71.6 °F 62% 30.33 in 10.0 mi West 8.1 mph - N/A   Scattered Clouds
11:20 AM 84.2 °F 89.6 °F 71.6 °F 66% 30.33 in 10.0 mi NW 9.2 mph - N/A   Mostly Cloudy
11:28 AM 84.2 °F 89.6 °F 71.6 °F 66% 30.33 in 10.0 mi NNW 11.5 mph - N/A   Mostly Cloudy
11:40 AM 84.2 °F 90.9 °F 73.4 °F 70% 30.33 in 10.0 mi WNW 10.4 mph - N/A   Mostly Cloudy
11:48 AM 86.0 °F 91.8 °F 71.6 °F 62% 30.33 in 10.0 mi NW 13.8 mph - N/A   Mostly Cloudy
11:53 AM 86.0 °F 92.2 °F 72.0 °F 63% 30.33 in 10.0 mi NW 11.5 mph - N/A   Mostly Cloudy
12:53 PM 88.0 °F 93.8 °F 71.1 °F 57% 30.32 in 10.0 mi NNW 6.9 mph - N/A   Mostly Cloudy
1:53 PM 84.0 °F 90.2 °F 73.0 °F 69% 30.31 in 10.0 mi SW 5.8 mph - N/A   Mostly Cloudy
2:53 PM 86.0 °F 93.0 °F 73.0 °F 65% 30.29 in 10.0 mi SW 10.4 mph 17.3 mph N/A   Scattered Clouds
3:53 PM 87.1 °F 93.6 °F 72.0 °F 61% 30.27 in 10.0 mi WSW 13.8 mph - N/A   Clear
4:53 PM 86.0 °F 92.2 °F 72.0 °F 63% 30.27 in 10.0 mi SW 10.4 mph 18.4 mph N/A   Clear
5:53 PM 82.0 °F 86.7 °F 72.0 °F 71% 30.26 in 10.0 mi SW 8.1 mph - N/A   Clear
6:53 PM 80.1 °F 83.6 °F 71.1 °F 74% 30.27 in 10.0 mi WSW 11.5 mph 18.4 mph N/A   Clear
7:53 PM 78.1 °F - 72.0 °F 81% 30.26 in 10.0 mi SW 8.1 mph - N/A   Partly Cloudy
8:53 PM 77.0 °F - 72.0 °F 84% 30.26 in 10.0 mi WSW 8.1 mph - N/A   Partly Cloudy
9:53 PM 78.1 °F - 71.1 °F 79% 30.27 in 10.0 mi WSW 10.4 mph - N/A   Mostly Cloudy
10:53 PM 78.1 °F - 70.0 °F 76% 30.26 in 10.0 mi WSW 9.2 mph - N/A   Scattered Clouds
11:53 PM 78.1 °F - 71.1 °F 79% 30.25 in 10.0 mi WSW 6.9 mph - N/A   Mostly Cloudy